Flag for Russia Weather past 2 weeks in Novorossiysk, Russia

Now
55 °F

Fog.


Feels Like: 52 °F
Forecast: 41 / 59 °F
Wind: 15 mph from East

Location: Anapa / Vitiazevo

Current Time: Oct 23, 2014 at 10:35:52 PM

Latest Report: Oct 23, 2014 at 10:00 PM


Visibility: 3 mi

Pressure: 29.89 "Hg

Humidity: 88%

Dew point: 52 °F

Location of NovorossiyskLocation

Historic Weather in Novorossiysk — Graph

°F

Novorossiysk temperature yesterday

Maximum temperature yesterday: 66 °F (at 12:00 PM)
Minimum temperature yesterday: 57 °F (at 2:00 AM)
Average temperature yesterday: 61 °F

Past Weeks' High & Low Weather Summary

 TemperatureHumidityPressure
High75 °F (Oct 12, 12:30 PM)100% (Oct 17, 10:30 PM)30.33 "Hg (Oct 17, 10:30 PM)
Low30 °F (Oct 20, 6:00 AM)29% (Oct 23, 3:00 PM)29.62 "Hg (Oct 18, 1:00 PM)
Average58 °F74%30.00 "Hg
* Reported Oct 8 9:00 PM — Oct 23 9:00 PM, Novorossiysk, Weather by CustomWeather, © 2014

Note: Actual official high and low records may vary slightly from our data, if they occured in-between our weather recording intervals... More about our weather records

Advertising

Novorossiysk weather history for previous 24 hours

 ConditionsComfort  
Time TempWeatherWind HumidityBarometerVisibility
9:00 PM
Oct 23
57 °FClear.17 mph88%29.89 "Hg10 mi
8:00 PM61 °FClear.15 mph83%29.89 "Hg10 mi
7:30 PM61 °FSunny.10 mph77%29.89 "Hg10 mi
7:00 PM59 °FSunny.10 mph82%29.89 "Hg10 mi
6:30 PM63 °FSunny.8 mph73%29.86 "Hg10 mi
6:00 PM66 °FSunny.10 mph56%29.86 "Hg10 mi
5:30 PM68 °FSunny.10 mph53%29.86 "Hg10 mi
5:00 PM70 °FSunny.13 mph46%29.86 "Hg10 mi
4:30 PM70 °FSunny.13 mph46%29.86 "Hg10 mi
4:00 PM72 °FSunny.13 mph41%29.86 "Hg10 mi
3:30 PM73 °FPassing clouds.10 mph41%29.86 "HgN/A
3:00 PM75 °FSunny.1 mph29%29.86 "Hg10 mi
2:30 PM75 °FPassing clouds.3 mph34%29.86 "HgN/A
2:00 PM73 °FSunny.6 mph41%29.86 "Hg10 mi
1:30 PM75 °FSunny.6 mph31%29.86 "Hg10 mi
1:00 PM73 °FSunny.1 mph33%29.86 "Hg10 mi
12:30 PM73 °FPassing clouds.3 mph33%29.89 "HgN/A
12:00 PM72 °FSunny.8 mph38%29.89 "Hg10 mi
11:30 AM70 °FSunny.13 mph46%29.86 "Hg10 mi
11:00 AM66 °FSunny.10 mph56%29.86 "Hg10 mi
10:30 AM64 °FSunny.6 mph60%29.86 "Hg10 mi
10:00 AM61 °FSunny.8 mph68%29.86 "Hg10 mi
9:30 AM63 °FSunny.8 mph68%29.86 "Hg10 mi
9:00 AM57 °FSunny.8 mph82%29.86 "Hg10 mi
8:30 AM55 °FClear.6 mph88%29.86 "Hg10 mi
8:00 AM54 °FClear.8 mph88%29.86 "Hg10 mi
7:30 AM54 °FClear.8 mph82%29.86 "Hg10 mi
7:00 AM57 °FClear.10 mph72%29.86 "Hg10 mi
6:30 AM57 °FClear.10 mph77%29.83 "Hg10 mi
6:00 AM57 °FClear.10 mph82%29.83 "Hg10 mi
5:00 AM57 °FClear.13 mph88%29.83 "Hg10 mi
4:00 AM59 °FClear.13 mph82%29.83 "Hg10 mi
3:00 AM55 °FClear.13 mph88%29.83 "Hg10 mi
2:00 AM55 °FClear.13 mph94%29.83 "Hg10 mi
1:00 AM57 °FClear.13 mph88%29.83 "Hg10 mi
12:00 AM55 °FClear.10 mph94%29.83 "Hg10 mi
11:00 PM
Oct 22
57 °FPassing clouds.13 mph88%29.83 "HgN/A
10:00 PM57 °FPassing clouds.13 mph88%29.83 "HgN/A
Weather by CustomWeather, © 2014

See weather overviewHow to use our weather pages